Location: Home
(42.5358°N, 72.7383°W)
Time: 00:33:50
(UTC-04:00)

DELTA 1 DEB - Pass Details

Date: 04 July 2022
Orbit: 600 x 774 km, 98.5° (Epoch: 16 August)

Event Time Altitude Azimuth Distance (km) Brightness Sun altitude
Exits shadow 22:11:58 22° 129° (SE) 1,619 ? -14.6°
Maximum altitude 22:14:51 43° 70° (ENE) 1,041 ? -14.9°
Drops below altitude 10° 22:19:28 10° 0° (N) 2,226 ? -15.4°
Sets 22:21:47 0° 354° (N) 3,124 ? -15.7°
